RH
97 96 97 98 98 97 98 95 96 94 94 90 89 90 88 84 85 86 87 85 88 90 90 90 89 89 89 88 87 85 83 80
98 98 98 99 99 99 97 96 94 94 94 92 87 85 84 82 83 85 89 88 88 90 92 90 90 89 88 88 88 86 84 83
98 98 98 98 98 99 97 96 96 94 96 96 93 94 94 90 88 86 86 81 83 90 90 88 90 89 88 87 83 84 83 85
98 98 99 99 99 99 97 96 95 94 96 96 98 98 98 95 89 91 80 85 88 89 87 89 86 87 87 82 83 81 83 85
96 99 98 99 100 99 99 99 98 98 97 98 98 98 98 98 98 99 98 88 93 94 85 83 88 86 85 85 82 83 81 79
93 96 99 98 99 99 99 99 98 98 99 98 99 98 98 97 98 98 96 96 99 95 84 87 86 83 80 82 81 82 84 80
98 95 97 98 98 99 98 99 97 95 99 98 97 98 98 97 96 98 96 96 98 92 87 82 81 79 80 78 79 80 81 80
97 97 96 95 99 98 98 99 96 96 98 98 98 97 98 98 98 98 97 98 98 91 82 78 78 77 80 79 82 78 82 84
96 98 99 99 99 98 98 97 96 97 97 97 98 97 97 97 99 98 98 98 97 89 82 80 83 79 82 80 81 87 88 84
95 95 99 99 99 99 99 99 98 98 98 98 98 96 96 97 97 98 98 97 95 84 77 79 82 83 88 89 86 86 88 87
96 98 98 99 98 99 99 99 99 99 98 97 96 96 95 96 97 98 97 95 88 83 83 77 83 87 87 94 92 92 87 81
95 97 98 99 99 99 99 100 99 99 99 97 95 95 94 95 97 97 92 91 83 78 77 79 81 84 76 89 95 94 92 92
96 97 98 97 98 98 99 99 99 100 99 97 98 94 96 95 97 96 94 88 85 77 76 82 87 80 87 91 95 94 91 91
96 90 93 92 95 89 92 93 98 98 99 97 97 98 96 95 97 96 95 92 86 75 70 80 86 80 84 88 96 91 89 87
94 88 90 89 87 91 97 98 98 98 99 99 98 98 96 95 95 94 95 92 91 79 68 68 80 87 78 90 98 97 95 92
90 87 90 86 90 94 93 92 97 96 98 98 98 97 97 97 98 94 95 95 94 83 65 65 74 82 80 82 86 89 96 97
86 87 90 88 93 97 98 98 90 88 98 96 98 97 96 98 97 94 93 91 88 84 73 70 72 79 79 92 91 93 90 91
88 89 90 88 93 97 96 97 94 98 97 97 93 99 98 98 97 96 95 93 93 89 78 70 80 82 88 86 88 86 90 87
87 88 90 93 95 97 96 96 96 92 92 94 97 98 99 99 97 98 97 90 90 89 89 89 92 85 85 88 87 84 87 80
87 87 91 91 94 96 96 95 96 88 97 91 93 94 95 97 96 94 93 92 93 93 89 88 96 95 89 82 86 82 87 81
Wind_Speed
6 6 8 10 10 10 10 11 10 13 13 16 19 20 18 16 15 17 12 12 18 20 21 19 18 18 18 17 16 14 7 6
7 6 6 6 6 8 12 13 16 16 13 15 21 19 17 16 21 22 18 20 19 20 20 19 18 17 18 16 15 12 7 5
6 6 5 5 5 7 13 14 13 13 10 11 11 6 8 11 13 19 24 24 22 19 21 20 18 17 17 15 12 4 5 3
7 5 6 6 4 7 9 10 8 8 7 8 5 5 2 5 9 10 21 21 24 22 20 18 14 7 7 10 3 5 3 4
9 7 6 6 5 5 3 4 5 4 7 7 5 3 3 3 2 3 5 15 9 9 13 8 10 8 5 4 5 4 3 3
10 8 7 6 4 4 6 4 4 4 4 8 6 5 7 5 4 3 6 7 6 7 6 8 9 8 9 8 6 4 3 3
8 10 9 7 6 4 5 5 4 5 4 6 7 6 6 6 7 4 7 9 8 8 8 9 8 10 8 9 7 6 5 4
8 10 10 11 8 7 7 6 6 6 5 6 7 7 7 7 8 8 9 8 8 8 9 9 8 9 9 7 6 7 5 6
11 10 8 9 7 7 7 8 7 6 5 6 6 6 7 7 4 8 9 8 8 7 8 8 7 7 8 6 7 5 5 5
11 9 10 8 6 5 5 7 7 6 6 6 6 7 6 8 7 6 7 8 7 7 9 8 7 8 6 5 5 4 5 5
13 11 11 8 6 4 4 5 5 6 6 7 8 7 8 5 6 7 9 8 8 9 5 10 8 7 6 5 4 4 5 5
12 11 11 8 6 4 3 2 2 2 5 7 9 7 10 8 5 8 9 7 6 7 9 6 9 9 8 5 3 3 3 4
15 15 13 10 7 6 4 4 2 1 2 4 6 9 10 10 8 9 9 8 9 9 8 10 4 8 9 5 4 4 3 3
15 16 16 12 8 6 3 3 2 2 3 3 4 3 10 10 10 11 10 8 11 11 11 7 3 9 5 5 4 2 1 3
18 18 16 14 11 6 3 3 1 3 3 2 4 5 5 12 13 12 13 10 9 12 12 16 9 6 12 5 4 4 3 2
16 15 15 14 13 10 12 7 5 4 3 3 4 5 5 7 8 12 13 10 12 12 12 9 7 11 8 2 2 6 5 3
15 15 15 14 13 11 9 5 3 2 2 4 3 5 6 10 9 12 12 10 10 12 14 12 10 10 8 3 2 3 3 4
14 16 16 14 13 11 11 10 8 5 4 3 4 3 6 6 10 10 11 12 14 11 12 15 12 9 5 7 4 4 3 4
16 17 17 14 14 11 10 10 10 10 7 5 4 3 2 7 9 9 9 11 13 13 11 9 6 10 9 6 3 4 4 3
19 19 17 15 14 11 9 9 6 7 6 6 5 3 4 5 7 8 11 12 11 11 9 12 5 5 9 6 4 5 4 6
Wind_Direction
155 168 177 182 182 178 171 163 158 155 145 151 148 151 155 165 131 148 164 204 162 147 144 141 136 130 127 120 116 118 114 118
165 172 174 174 175 180 165 156 145 148 153 145 147 160 160 168 162 167 170 199 166 151 137 139 134 131 127 124 122 117 114 122
171 168 168 167 167 162 164 150 144 149 142 138 152 167 182 187 190 188 192 179 166 152 139 142 137 131 130 129 118 111 111 109
177 172 169 153 154 145 149 160 166 163 158 154 160 163 159 205 216 192 181 168 159 154 143 137 134 129 128 113 99 107 103 118
190 169 165 158 161 149 139 150 155 157 150 157 166 174 193 208 212 173 166 168 160 148 142 139 142 136 123 114 111 107 107 119
192 172 166 169 156 158 145 151 149 147 151 151 166 189 201 210 212 165 159 152 165 140 139 136 137 130 133 128 127 116 134 106
192 175 176 174 169 163 142 152 161 174 169 173 179 194 200 202 207 173 158 164 161 145 145 142 140 140 136 137 132 131 136 117
178 183 182 181 185 172 160 159 176 178 176 187 189 211 198 188 199 171 147 149 135 153 155 146 147 145 138 142 136 138 134 131
175 177 165 183 181 169 164 168 183 181 182 186 188 165 168 172 120 137 141 134 135 153 138 137 130 134 136 133 137 131 135 133
172 171 172 178 180 170 154 166 171 172 171 177 186 160 162 170 147 136 130 131 141 156 148 138 139 137 138 139 140 138 128 135
173 169 172 173 166 157 155 164 169 172 166 174 185 169 165 169 153 143 138 148 161 158 137 144 140 134 144 126 139 141 147 147
162 171 161 154 142 126 111 137 162 182 160 178 183 185 176 165 155 141 150 146 146 146 146 139 148 145 139 108 81 95 123 144
166 170 165 162 160 157 154 174 159 188 190 164 183 189 181 180 164 149 153 164 161 161 148 144 130 141 119 101 72 71 82 132
168 177 174 174 167 164 134 153 161 170 177 186 186 211 189 186 165 162 165 150 156 160 154 146 110 170 154 130 135 100 144 187
174 179 174 176 163 139 102 88 113 162 179 175 195 188 210 193 172 169 162 160 164 163 170 174 157 193 173 139 146 170 129 169
168 174 170 175 159 167 177 187 176 189 164 176 188 184 193 186 167 162 169 173 174 178 175 174 168 172 179 117 103 139 160 160
169 169 171 168 175 174 172 165 151 134 153 164 192 206 193 169 164 172 171 174 178 180 170 178 177 174 175 146 117 79 101 127
169 172 175 171 179 170 168 157 160 152 165 157 201 181 177 177 165 175 172 172 174 186 186 182 169 174 161 168 149 151 165 131
176 172 179 172 179 172 167 163 161 153 182 173 171 155 166 172 173 171 170 174 179 170 164 153 160 173 170 163 144 154 139 129
176 176 175 171 177 173 167 162 161 149 175 179 173 172 154 155 160 159 164 167 170 179 178 171 173 170 193 164 167 188 134 191